Regional Weather Roundup
Issued by NWS

Home | Current Version | Previous Version | Graphics & Text | Print | Product List | Glossary On
Versions: 1 2 3 4 5 6 7 8 9 10 11 12 13 14 15 16 17 18 19 20 21 22 23 24 25 26 27 28 29 30 31 32 33 34 35 36 37 38 39 40 41 42 43 44 45 46 47 48 49 50
000
ASUS45 KPSR 182200
RWRAZ

PRELIMINARY ARIZONA REGIONAL HOURLY WEATHER ROUNDUP
NATIONAL WEATHER SERVICE PHOENIX AZ
300 PM MST THU DEC 18 2014

NOTE: FAIR INDICATES FEW OR NO CLOUDS BELOW 12,000 FEET WITH NO
SIGNIFICANT WEATHER AND/OR OBSTRUCTIONS TO VISIBILITY.

AZZ001>003-036-182300-
NORTHWEST ARIZONA

CITY           SKY/WX    TMP DP  RH WIND       PRES   REMARKS
KINGMAN        SUNNY     51  34  52 N6        30.12F
$$

AZZ004>008-015-016-018-182300-
NORTH CENTRAL ARIZONA

CITY           SKY/WX    TMP DP  RH WIND       PRES   REMARKS
GRAND CANYON   PTSUNNY   38  29  70 W7        30.11S WCI  33
PRESCOTT       PTSUNNY   46  29  51 N10       30.10S
FLAGSTAFF      MOSUNNY   32  28  85 CALM      30.09S FOG
PAYSON         PTSUNNY   41  36  81 VRB6      30.11R
PAGE           SUNNY     47  32  56 CALM      30.11S
$$

AZZ009>014-017-182300-
NORTHEAST ARIZONA

CITY           SKY/WX    TMP DP  RH WIND       PRES   REMARKS
WINSLOW        NOT AVBL
SAINT JOHNS    CLOUDY    38  33  82 N8        30.09R WCI  32
WINDOW ROCK    CLOUDY    38  24  57 CALM      30.09R
$$

AZZ023-182300-
GREATER PHOENIX AREA

CITY           SKY/WX    TMP DP  RH WIND       PRES   REMARKS
PHOENIX        PTSUNNY   61  42  49 VRB7      30.07S
GLENDALE       PTSUNNY   61  43  51 CALM      30.10F
DEER VALLEY    SUNNY     57  40  52 CALM      30.08S
SCOTTSDALE     SUNNY     59  40  49 VRB3      30.09S
MESA-GATEWAY   MOSUNNY   59  43  55 NW6       30.10
CHANDLER       PTSUNNY   61  45  55 VRB6      30.08F
$$

AZZ027-028-182300-
SOUTHWEST MARICOPA COUNTY AND PINAL COUNTY

CITY           SKY/WX    TMP DP  RH WIND       PRES   REMARKS
CASA GRANDE    FAIR      59  43  55 CALM      30.09S
$$

AZZ503-504-507>509-182300-
SOUTHEAST ARIZONA

CITY           SKY/WX    TMP DP  RH WIND       PRES   REMARKS
TUCSON         MOSUNNY   56  43  61 NW10      30.10S
RYAN FIELD       N/A     57  48  72 NW10      30.10S
NOGALES        CLOUDY    48  44  86 VRB3      30.09S
SIERRA VISTA   LGT RAIN  46  43  87 W13       30.08S
SAFFORD        RAIN      47  44  90 W16       30.08R
$$

AZZ020-021-025-026-031-182300-
SOUTHWEST ARIZONA

CITY           SKY/WX    TMP DP  RH WIND       PRES   REMARKS
YUMA           PTSUNNY  N/A N/A N/A N6        30.10F
$$

CAZ031-033-041-043-047-048-061-182300-
SOUTHERN CALIFORNIA

CITY           SKY/WX    TMP DP  RH WIND       PRES   REMARKS
DOWNTOWN L.A.  CLOUDY    61  47  59 CALM      30.13F
L.A. AIRPORT   PTSUNNY   60  48  64 CALM      30.14F
SAN DIEGO      MOSUNNY   64  48  56 NW5       30.16F
BURBANK        CLOUDY    61  44  53 VRB3      30.12F
ONTARIO        MOSUNNY   62  40  44 W6        30.13F
RIVERSIDE      PTSUNNY   62  44  51 W5        30.13F
PALM SPRINGS   SUNNY     66  35  31 NW5       30.12F
EL CENTRO NAS  MOSUNNY   66  43  43 NW7       30.11F
IMPERIAL       SUNNY     65  43  44 NW7       30.11S
BLYTHE         SUNNY     61  46  57 N3        30.12F
$$

NVZ020-UTZ003-182300-
SOUTHERN NEVADA-UTAH

CITY           SKY/WX    TMP DP  RH WIND       PRES   REMARKS
LAS VEGAS      NOT AVBL
SALT LAKE CITY MOSUNNY   44  30  57 VRB3      30.12S
$$

NMZ009-TXZ055-182300-
NEW MEXICO-WEST TEXAS

CITY           SKY/WX    TMP DP  RH WIND       PRES   REMARKS
ALBUQUERQUE    PTSUNNY   43  27  53 N3        30.08F
EL PASO        CLOUDY    54  35  48 S3        30.05F
$$


........................KEY........................
SKY/WX - SKY CONDITION/WEATHER
TMP    - TEMPERATURE IN FAHRENHEIT
DP     - DEW POINT IN FAHRENHEIT
RH     - RELATIVE HUMIDITY IN PERCENT
WIND   - DIRECTION AND SPEED IN MILES PER HOUR (MPH)
VRB    - VARIABLE WIND DIRECTION
PRES   - MEAN SEA LEVEL PRESSURE IN INCHES OF MERCURY
         F - FALLING PRESSURE   R - RISING PRESSURE
         S - STEADY PRESSURE
VSB    - VISIBILITY IN MILES
HX     - HEAT INDEX IN FAHRENHEIT
WCI    - WIND CHILL INDEX IN FAHRENHEIT
TC     - TEMPERATURE IN CELSIUS WHICH IS ALSO KNOWN AS
         TEMPERATURE IN CENTIGRADE
AFB    - AIR FORCE BASE
         LUKE AFB IS LUKE AIR FORCE BASE
         DAVIS-MONTHAN IS DAVIS-MONTHAN AIR FORCE BASE
NAS    - NAVAL AIR STATION
         EL CENTRO NAS IS EL CENTRO NAVAL AIR STATION
N/A    - NOT AVAILABLE


USA.gov is the U.S. government's official web portal to all federal, state and local government web resources and services.